Location: Roanoke
(37.2710°N, 79.9420°W)
Time: 17:08:25
(UTC-05:00)

S-56A Canister/Altair - Pass Details

Date: 27 November 2019
Orbit: 633 x 2499 km, 38.9° (Epoch: 07 December)

Event Time Altitude Azimuth Distance (km) Brightness Sun altitude
Rises 18:01:22 0° 280° (W) 5,496 13.1 -11.5°
Reaches altitude 10° 18:05:25 10° 281° (W) 4,228 12.3 -12.3°
Maximum altitude 18:16:10 88° 10° (N) 1,340 8.7 -14.3°
Enters shadow 18:21:47 18° 101° (E) 2,375 9.5 -15.4°
Drops below altitude 10° 18:23:01 10° 102° (ESE) 2,786 - -15.6°
Sets 18:25:12 0° 102° (ESE) 3,554 - -16.0°
